Tracking 21475 objects as of 29-Sep-2020
HD Live streaming from Space Station
objects crossing your sky now

COSMOS 2340

Track COSMOS 2340 now!
COSMOS 2340 is classified as:


NORAD ID: 24761
Int'l Code: 1997-015A
Perigee: 3,121.8 km
Apogee: 37,245.8 km
Inclination: 66.7 °
Period: 717.8 minutes
Semi major axis: 26554 km
RCS: 6.3095 m2 (large)
Launch date: April 9, 1997
Source: Commonwealth of Independent States (former USSR) (CIS)
Launch site: PLESETSK MISSILE AND SPACE COMPLEX (PKMTR)
aabbcc
Your satellite tracking list
Your tracking list is empty




NASA's NSSDC Master Catalog

Two Line Element Set (TLE):
1 24761U 97015A   20272.64050112 +.00000312 +00000-0 +00000-0 0  9990
2 24761 066.7145 332.8579 6425208 177.0204 190.5218 02.00626450171961
Source of the keplerian elements: AFSPC